Home > Weather > Taichung > Past weeks

Flag for Taiwan Weather for the Past 2 Weeks in Taichung, Taiwan

Now
64 °F

Fog.


Feels Like: 64 °F
Forecast: 55 / 63 °F
Wind: 8 mph from North

Location: Chiang Kai Shek

Current Time: Feb 14, 2016 at 8:39:35 AM

Latest Report: Feb 14, 2016 at 8:00 AM


Visibility: 0 mi

Pressure: 29.98 "Hg

Humidity: 94%

Dew point: 63 °F

Location of TaichungLocation

Historic Weather in Taichung — Graph

°F

Taichung Temperature Yesterday

Maximum temperature yesterday: 79 °F (at 9:30 AM)
Minimum temperature yesterday: 63 °F (at 12:00 AM)
Average temperature yesterday: 71 °F

High & Low Weather Summary for the Past Weeks

 TemperatureHumidityPressure
High79 °F (Feb 13, 9:30 AM)100% (Feb 11, 5:03 PM)30.36 "Hg (Feb 11, 5:03 PM)
Low45 °F (Feb 8, 1:30 AM)32% (Feb 9, 11:00 AM)29.83 "Hg (Feb 13, 2:00 PM)
Average59 °F78%30.15 "Hg
* Reported Jan 30 7:30 AM — Feb 14 7:00 AM, Taichung, Weather by CustomWeather, © 2016

Note: Actual official high and low records may vary slightly from our data, if they occured in-between our weather recording intervals... More about our weather records

Advertising

Taichung Weather History for the Previous 24 Hours

 ConditionsComfort  
Time TempWeatherWind HumidityBarometerVisibility
7:00 AM
Sun, Feb 14
66 °FBroken clouds.7 mph94%29.95 "Hg4 mi
6:30 AM68 °FPartly sunny.3 mph83%29.95 "HgN/A
5:30 AM68 °FPassing clouds.5 mph83%29.92 "HgN/A
5:00 AM68 °FPartly cloudy.8 mph78%29.89 "HgN/A
4:30 AM68 °FPartly cloudy.7 mph83%29.89 "HgN/A
4:00 AM68 °FPartly cloudy.7 mph83%29.89 "HgN/A
3:30 AM68 °FPassing clouds.7 mph83%29.89 "HgN/A
3:00 AM68 °FPassing clouds.9 mph83%29.89 "HgN/A
2:30 AM70 °FPassing clouds.8 mph78%29.89 "HgN/A
2:00 AM70 °FPassing clouds.9 mph83%29.89 "HgN/A
1:30 AM72 °FClear.9 mph78%29.89 "Hg10 mi
1:00 AM72 °FClear.9 mph78%29.89 "Hg10 mi
12:30 AM73 °FClear.7 mph74%29.92 "Hg10 mi
12:00 AM70 °FPassing clouds.2 mph83%29.92 "HgN/A
11:30 PM
Sat, Feb 13
70 °FPassing clouds.2 mph83%29.92 "HgN/A
11:00 PM72 °FClear.5 mph78%29.92 "Hg10 mi
10:30 PM73 °FClear.9 mph74%29.89 "Hg10 mi
10:00 PM73 °FClear.8 mph74%29.89 "Hg10 mi
9:30 PM73 °FClear.6 mph78%29.89 "Hg10 mi
9:00 PM73 °FClear.5 mph78%29.89 "Hg10 mi
8:30 PM73 °FClear.8 mph78%29.92 "Hg10 mi
8:00 PM72 °FClear.12 mph88%29.89 "Hg10 mi
7:30 PM72 °FPassing clouds.13 mph88%29.89 "HgN/A
7:00 PM72 °FPassing clouds.12 mph88%29.89 "HgN/A
6:30 PM72 °FPassing clouds.16 mph88%29.89 "HgN/A
6:00 PM72 °FPassing clouds.16 mph88%29.89 "HgN/A
5:30 PM73 °FPassing clouds.20 mph89%29.86 "HgN/A
5:00 PM73 °FPassing clouds.22 mph89%29.86 "HgN/A
4:30 PM72 °FScattered clouds.21 mph88%29.86 "HgN/A
4:00 PM72 °FFog.20 mph88%29.86 "Hg3 mi
3:30 PM72 °FPartly sunny.21 mph88%29.86 "HgN/A
3:00 PM72 °FPartly sunny.22 mph88%29.86 "HgN/A
2:48 PM73 °FBroken clouds.21 mph83%29.86 "HgN/A
2:30 PM72 °FScattered clouds.23 mph88%29.86 "HgN/A
2:00 PM79 °FPassing clouds.16 mph70%29.83 "HgN/A
1:30 PM77 °FPassing clouds.18 mph74%29.86 "HgN/A
1:00 PM79 °FPassing clouds.13 mph65%29.86 "HgN/A
12:30 PM77 °FPassing clouds.15 mph69%29.89 "HgN/A
12:00 PM75 °FPassing clouds.20 mph74%29.89 "HgN/A
11:30 AM73 °FPassing clouds.16 mph78%29.92 "HgN/A
11:00 AM72 °FPassing clouds.17 mph73%29.92 "HgN/A
10:30 AM70 °FSunny.13 mph78%29.92 "Hg10 mi
10:00 AM77 °FSunny.8 mph65%29.92 "Hg10 mi
9:30 AM79 °FSunny.6 mph58%29.92 "Hg10 mi
9:00 AM75 °FSunny.9 mph65%29.92 "Hg10 mi
8:00 AM68 °FPassing clouds.10 mph83%29.92 "HgN/A
Weather by CustomWeather, © 2016

See weather overviewHow to use our weather pages